Notices

What's New in latest Release from April 7th, 2021:

- Updated Glossary, including Speed of Maximum Gust, and Total Hourly Precipitation

- Updated national and regional climate services offices contacts and prices information

- Addition of station inventory lists for 1981-2010, 1971-2000, and 1961-1990 Normals.

If you haven't already, please take our survey and provide feedback about our website: https://eccc.sondage-survey.ca/f/LanguageSelection.aspx?s=442ca660-fcf1-47c0-95a9-59707d6fd709

Hourly Data Report for November 08, 2003

TORONTO CITY
ONTARIO

43°40'00.000" N
79°24'00.000" W
112.50 m
6158355
71508
XTO

Download Data

Hourly Data (November 2003)
Hourly Data Report for November 8, 2003
TIME
LST
Temp Definition
°C
Dew Point Definition
°C
Rel Hum Definition
%
Precip. Amount Definition
mm

Wind Dir Definition
10's deg

Wind Spd Definition
km/h
Visibility Definition
km
Stn Press Definition
kPa
Hmdx Definition


Wind Chill Definition


Weather Definition


00:00 -0.5 -7.2 60   LegendMM LegendMM LegendMM 101.33     LegendNANA
01:00 -1.0 -7.8 60   LegendMM LegendMM LegendMM 101.41     LegendNANA
02:00 -1.1 -7.1 64   LegendMM LegendMM LegendMM 101.48     LegendNANA
03:00 -2.0 -5.6 76   LegendMM LegendMM LegendMM 101.58     LegendNANA
04:00
05:00 -3.2 -8.7 66   LegendMM LegendMM LegendMM 101.73     LegendNANA
06:00 -3.6 -8.2 70   LegendMM LegendMM LegendMM 101.81     LegendNANA
07:00 -3.8 -8.5 70   LegendMM LegendMM LegendMM 101.89     LegendNANA
08:00 -3.5 -7.7 73   LegendMM LegendMM LegendMM 102.00     LegendNANA
09:00 -2.6 -8.4 64   LegendMM LegendMM LegendMM 102.09     LegendNANA
10:00 -1.2 -8.5 58   LegendMM LegendMM LegendMM 102.15     LegendNANA
11:00 0.0 -8.3 54   LegendMM LegendMM LegendMM 102.18     LegendNANA
12:00 1.4 -9.6 44   LegendMM LegendMM LegendMM 102.13     LegendNANA
13:00 2.5 -9.8 40   LegendMM LegendMM LegendMM 102.13     LegendNANA
14:00 1.7 -9.6 43   LegendMM LegendMM LegendMM 102.11     LegendNANA
15:00 1.5 -10.1 42   LegendMM LegendMM LegendMM 102.12     LegendNANA
16:00 1.3 -9.1 46   LegendMM LegendMM LegendMM 102.17     LegendNANA
17:00 1.1 -9.3 46   LegendMM LegendMM LegendMM 102.17     LegendNANA
18:00 0.5 -7.3 56   LegendMM LegendMM LegendMM 102.21     LegendNANA
19:00 0.3 -7.1 58   LegendMM LegendMM LegendMM 102.25     LegendNANA
20:00 0.0 -7.6 57   LegendMM LegendMM LegendMM 102.27     LegendNANA
21:00 -0.4 -9.4 51   LegendMM LegendMM LegendMM 102.30     LegendNANA
22:00 -0.7 -10.2 49   LegendMM LegendMM LegendMM 102.34     LegendNANA
23:00 -1.4 -9.6 54   LegendMM LegendMM LegendMM 102.39     LegendNANA

Notes on Data Quality.

Legend

  • E = Estimated
  • M = Missing
  • NA = Not Available*
  • [empty] = Indicates an unobserved value
Date modified: